| time (UTC) | temp F | wind direction | speed knots | gust knots | rain 1hr in | rain 24hr in | rain mn in | humidity % | barometer mb |
| 20260507021231 | 41 | 215 | 0.0 | 0.0 | 0.00 | 1.00 | 1.00 | 99 | 1008.4 |
| 20260507020730 | 41 | 214 | 0.0 | 0.0 | 0.00 | 1.00 | 1.00 | 99 | 1008.4 |
| 20260507020226 | 41 | 211 | 0.0 | 0.0 | 0.00 | 1.00 | 1.00 | 99 | 1008.2 |
| 20260507015724 | 41 | 211 | 0.0 | 0.0 | 0.00 | 1.00 | 1.00 | 99 | 1008.2 |
| 20260507015221 | 41 | 217 | 0.0 | 0.0 | 0.00 | 1.00 | 1.00 | 99 | 1008.4 |
| 20260507014717 | 41 | 217 | 0.0 | 0.0 | 0.00 | 1.00 | 1.00 | 99 | 1008.1 |
| 20260507014214 | 42 | 217 | 0.0 | 0.0 | 0.00 | 1.00 | 1.00 | 99 | 1008.2 |
| 20260507013711 | 42 | 217 | 0.0 | 0.0 | 0.00 | 1.00 | 1.00 | 99 | 1008.1 |
| 20260507013208 | 42 | 210 | 0.0 | 0.0 | 0.00 | 1.00 | 1.00 | 99 | 1008.3 |
| 20260507012705 | 42 | 210 | 0.0 | 0.0 | 0.00 | 1.00 | 1.00 | 99 | 1008.0 |
| 20260507012201 | 42 | 210 | 0.0 | 0.0 | 0.00 | 1.00 | 1.00 | 99 | 1007.9 |
| 20260507011659 | 42 | 210 | 0.0 | 0.0 | 0.00 | 1.00 | 1.00 | 99 | 1007.8 |
| 20260507011155 | 42 | 209 | 0.0 | 0.0 | 0.00 | 1.00 | 1.00 | 99 | 1007.6 |
| 20260507010654 | 42 | 209 | 0.0 | 0.0 | 0.00 | 1.00 | 1.00 | 99 | 1007.9 |
| 20260507010150 | 42 | 209 | 0.0 | 0.0 | 0.00 | 1.00 | 1.00 | 99 | 1007.7 |
| 20260507005648 | 42 | 212 | 0.0 | 0.0 | 0.00 | 1.00 | 1.00 | 99 | 1007.8 |
| 20260507005144 | 42 | 212 | 0.0 | 0.0 | 0.00 | 1.00 | 1.00 | 99 | 1007.8 |
| 20260507004641 | 42 | 212 | 0.0 | 0.0 | 0.00 | 1.00 | 1.00 | 99 | 1007.8 |
| 20260507004139 | 42 | 217 | 0.0 | 0.0 | 0.00 | 1.00 | 1.00 | 99 | 1007.9 |
| 20260507003635 | 42 | 217 | 0.0 | 0.0 | 0.00 | 1.00 | 1.00 | 99 | 1008.0 |
| 20260507003130 | 42 | 217 | 0.0 | 0.0 | 0.00 | 1.00 | 1.00 | 99 | 1007.8 |
| 20260507002627 | 42 | 206 | 0.0 | 0.0 | 0.00 | 1.00 | 1.00 | 99 | 1007.4 |
| 20260507002122 | 42 | 205 | 0.0 | 0.0 | 0.00 | 1.00 | 1.00 | 99 | 1007.6 |
| 20260507001619 | 42 | 211 | 0.0 | 0.0 | 0.00 | 1.00 | 1.00 | 98 | 1007.6 |
| 20260507001117 | 42 | 218 | 0.0 | 0.0 | 0.00 | 1.00 | 1.00 | 98 | 1007.8 |
| 20260507000613 | 42 | 219 | 0.0 | 0.0 | 0.00 | 1.00 | 1.00 | 98 | 1007.6 |
| 20260507000108 | 42 | 219 | 0.0 | 0.0 | 0.00 | 1.00 | 1.00 | 98 | 1007.6 |
| 20260506235606 | 42 | 218 | 0.0 | 0.0 | 0.00 | 1.00 | 1.00 | 98 | 1007.5 |
| 20260506235106 | 42 | 219 | 0.0 | 0.0 | 0.00 | 1.00 | 1.00 | 98 | 1007.4 |
| 20260506234604 | 42 | 218 | 0.0 | 0.0 | 0.00 | 1.00 | 1.00 | 98 | 1007.5 |
| 20260506234101 | 42 | 221 | 0.0 | 0.0 | 0.00 | 1.00 | 1.00 | 98 | 1007.4 |
| 20260506233558 | 42 | 217 | 0.0 | 0.0 | 0.00 | 1.00 | 1.00 | 98 | 1007.3 |
| 20260506233054 | 42 | 212 | 0.0 | 0.0 | 0.00 | 1.00 | 1.00 | 98 | 1007.3 |
| 20260506232550 | 42 | 221 | 0.0 | 0.0 | 0.00 | 1.00 | 1.00 | 98 | 1007.1 |
| 20260506232046 | 42 | 215 | 0.0 | 0.0 | 0.00 | 1.00 | 1.00 | 98 | 1007.0 |
| 20260506231544 | 42 | 217 | 0.0 | 0.0 | 0.00 | 1.00 | 1.00 | 98 | 1007.0 |
| 20260506231042 | 42 | 241 | 0.0 | 0.0 | 0.00 | 1.00 | 1.00 | 98 | 1007.2 |
| 20260506230538 | 43 | 220 | 0.0 | 0.0 | 0.00 | 1.00 | 1.00 | 98 | 1007.0 |
| 20260506230035 | 43 | 218 | 0.0 | 0.0 | 0.00 | 1.00 | 1.00 | 98 | 1007.0 |
| 20260506225532 | 43 | 220 | 0.0 | 0.0 | 0.00 | 1.00 | 1.00 | 98 | 1006.9 |
| 20260506225028 | 43 | 216 | 0.0 | 0.0 | 0.00 | 1.00 | 1.00 | 98 | 1006.7 |
| 20260506224525 | 43 | 209 | 0.0 | 0.0 | 0.00 | 1.00 | 1.00 | 98 | 1006.6 |
| 20260506224022 | 43 | 205 | 0.0 | 0.0 | 0.00 | 1.00 | 1.00 | 98 | 1006.6 |
| 20260506223517 | 43 | 212 | 0.0 | 0.0 | 0.00 | 1.00 | 1.00 | 98 | 1006.6 |
| 20260506223014 | 43 | 217 | 0.0 | 0.0 | 0.00 | 1.00 | 1.00 | 98 | 1006.6 |
| 20260506222511 | 44 | 228 | 0.0 | 0.0 | 0.00 | 1.00 | 1.00 | 98 | 1006.3 |
| 20260506222008 | 43 | 209 | 0.0 | 0.0 | 0.00 | 1.00 | 1.00 | 98 | 1006.6 |
| 20260506221505 | 43 | 206 | 0.0 | 0.0 | 0.00 | 1.00 | 1.00 | 98 | 1006.3 |
| 20260506221003 | 43 | 207 | 0.0 | 0.0 | 0.00 | 1.00 | 1.00 | 98 | 1006.6 |
| 20260506220458 | 43 | 206 | 0.0 | 0.0 | 0.00 | 1.00 | 1.00 | 98 | 1006.6 |
| 20260506215955 | 43 | 212 | 0.0 | 0.0 | 0.00 | 1.00 | 1.00 | 98 | 1006.7 |
| 20260506215451 | 43 | 197 | 0.0 | 0.0 | 0.00 | 1.00 | 1.00 | 98 | 1006.8 |
| 20260506214947 | 43 | 210 | 0.0 | 0.0 | 0.00 | 1.00 | 1.00 | 98 | 1006.7 |
| 20260506214444 | 43 | 212 | 0.0 | 0.0 | 0.00 | 1.00 | 1.00 | 98 | 1006.8 |
| 20260506213942 | 43 | 224 | 0.0 | 0.0 | 0.00 | 1.00 | 1.00 | 98 | 1006.7 |
| 20260506213439 | 43 | 219 | 0.0 | 0.0 | 0.00 | 1.00 | 1.00 | 98 | 1006.4 |
| 20260506212936 | 44 | 226 | 0.0 | 0.0 | 0.00 | 1.00 | 1.00 | 98 | 1006.3 |
| 20260506212432 | 44 | 209 | 0.0 | 0.0 | 0.07 | 1.00 | 1.00 | 98 | 1006.3 |
| 20260506211932 | 43 | 218 | 0.0 | 0.0 | 0.14 | 1.00 | 1.00 | 98 | 1006.3 |
| 20260506211429 | 43 | 217 | 0.0 | 0.0 | 0.07 | 0.99 | 0.99 | 98 | 1006.3 |
| 20260506210926 | 43 | 214 | 0.0 | 0.0 | 0.00 | 0.98 | 0.98 | 98 | 1006.3 |
| 20260506210422 | 43 | 211 | 0.0 | 0.0 | 0.00 | 0.98 | 0.98 | 98 | 1006.6 |
| 20260506205920 | 44 | 212 | 0.0 | 0.0 | 0.00 | 0.98 | 0.98 | 98 | 1006.2 |
| 20260506205415 | 44 | 228 | 0.0 | 0.0 | 0.00 | 0.98 | 0.98 | 98 | 1006.1 |
| 20260506204912 | 43 | 203 | 0.0 | 0.0 | 0.00 | 0.98 | 0.98 | 98 | 1006.3 |
| 20260506204410 | 44 | 203 | 0.0 | 0.0 | 0.00 | 0.98 | 0.98 | 98 | 1006.1 |
| 20260506203907 | 44 | 197 | 0.0 | 0.0 | 0.00 | 0.98 | 0.98 | 97 | 1006.2 |
| 20260506203404 | 44 | 211 | 0.0 | 0.0 | 0.00 | 0.98 | 0.98 | 97 | 1006.4 |
| 20260506202901 | 44 | 191 | 0.0 | 0.0 | 0.00 | 0.98 | 0.98 | 97 | 1006.3 |
| 20260506202358 | 44 | 211 | 0.0 | 0.0 | 0.00 | 0.98 | 0.98 | 98 | 1006.3 |
| 20260506201854 | 44 | 211 | 0.0 | 0.0 | 0.05 | 0.98 | 0.98 | 98 | 1006.1 |
| 20260506201352 | 44 | 211 | 0.0 | 0.0 | 0.05 | 0.98 | 0.98 | 98 | 1006.3 |
| 20260506200848 | 44 | 208 | 0.0 | 0.0 | 0.00 | 0.97 | 0.97 | 98 | 1006.3 |
| 20260506200344 | 44 | 209 | 0.0 | 0.0 | 0.00 | 0.97 | 0.97 | 98 | 1006.3 |
| 20260506195841 | 44 | 211 | 0.0 | 0.0 | 0.00 | 0.97 | 0.97 | 98 | 1006.6 |
| 20260506195338 | 44 | 187 | 0.0 | 0.0 | 0.00 | 0.97 | 0.97 | 97 | 1006.2 |
| 20260506194835 | 44 | 203 | 0.0 | 0.0 | 0.00 | 0.97 | 0.97 | 98 | 1006.2 |
| 20260506194332 | 44 | 216 | 0.0 | 0.0 | 0.07 | 0.97 | 0.97 | 97 | 1006.3 |
| 20260506193829 | 43 | 201 | 0.0 | 0.0 | 0.07 | 0.97 | 0.97 | 97 | 1006.2 |
| 20260506193326 | 43 | 204 | 0.0 | 0.0 | 0.05 | 0.96 | 0.96 | 97 | 1006.4 |
| 20260506192822 | 44 | 208 | 0.0 | 0.0 | 0.05 | 0.96 | 0.96 | 98 | 1006.2 |
| 20260506192319 | 44 | 209 | 0.0 | 0.0 | 0.07 | 0.95 | 0.95 | 98 | 1006.1 |
| 20260506191816 | 43 | 215 | 0.0 | 0.0 | 0.07 | 0.95 | 0.95 | 97 | 1006.3 |
| 20260506191312 | 43 | 199 | 0.0 | 0.0 | 0.05 | 0.94 | 0.94 | 97 | 1006.3 |
| 20260506190809 | 43 | 201 | 0.0 | 0.0 | 0.05 | 0.94 | 0.94 | 98 | 1006.2 |
| 20260506190306 | 44 | 212 | 0.0 | 0.0 | 0.00 | 0.93 | 0.93 | 98 | 1006.0 |
| 20260506185803 | 44 | 212 | 0.0 | 0.0 | 0.00 | 0.93 | 0.93 | 98 | 1005.9 |
| 20260506185259 | 43 | 205 | 0.0 | 0.0 | 0.00 | 0.93 | 0.93 | 98 | 1006.0 |
| 20260506184757 | 43 | 199 | 0.0 | 0.0 | 0.00 | 0.93 | 0.93 | 98 | 1005.9 |
| 20260506184254 | 43 | 195 | 0.0 | 0.0 | 0.00 | 0.93 | 0.93 | 97 | 1005.9 |
| 20260506183751 | 43 | 200 | 0.0 | 0.0 | 0.00 | 0.93 | 0.93 | 97 | 1006.0 |
| 20260506183251 | 43 | 187 | 0.0 | 0.0 | 0.00 | 0.93 | 0.93 | 98 | 1006.0 |
| 20260506182749 | 43 | 211 | 0.0 | 0.0 | 0.00 | 0.93 | 0.93 | 98 | 1005.8 |
| 20260506182246 | 43 | 205 | 0.0 | 0.0 | 0.00 | 0.93 | 0.93 | 97 | 1005.9 |
| 20260506181744 | 43 | 203 | 0.0 | 0.0 | 0.00 | 0.93 | 0.93 | 97 | 1005.9 |
| 20260506181241 | 43 | 203 | 0.0 | 0.0 | 0.00 | 0.93 | 0.93 | 97 | 1006.1 |
| 20260506180738 | 43 | 198 | 0.0 | 0.0 | 0.00 | 0.93 | 0.93 | 98 | 1006.1 |
| 20260506180234 | 43 | 198 | 0.0 | 0.0 | 0.00 | 0.93 | 0.93 | 98 | 1006.0 |
| 20260506175730 | 42 | 199 | 0.0 | 0.0 | 0.00 | 0.93 | 0.93 | 97 | 1006.0 |
| 20260506175227 | 43 | 196 | 0.0 | 0.0 | 0.00 | 0.93 | 0.93 | 98 | 1006.3 |
| 20260506174725 | 42 | 201 | 0.0 | 0.0 | 0.00 | 0.93 | 0.93 | 98 | 1006.3 |
| 20260506174221 | 42 | 200 | 0.0 | 0.0 | 0.00 | 0.93 | 0.93 | 98 | 1006.3 |
| 20260506173719 | 42 | 192 | 0.0 | 0.0 | 0.07 | 0.93 | 0.93 | 98 | 1006.3 |
| 20260506173216 | 42 | 202 | 0.0 | 0.0 | 0.07 | 0.93 | 0.93 | 98 | 1006.3 |
| 20260506172713 | 42 | 209 | 0.0 | 0.0 | 0.00 | 0.92 | 0.92 | 98 | 1006.4 |
| 20260506172209 | 42 | 191 | 0.0 | 0.0 | 0.00 | 0.92 | 0.92 | 98 | 1006.4 |
| 20260506171707 | 42 | 199 | 0.0 | 0.0 | 0.00 | 0.92 | 0.92 | 98 | 1006.6 |
| 20260506171204 | 41 | 199 | 0.0 | 0.0 | 0.05 | 0.92 | 0.92 | 98 | 1006.6 |
| 20260506170702 | 41 | 191 | 0.0 | 0.0 | 0.05 | 0.92 | 0.92 | 98 | 1006.8 |
| 20260506170158 | 41 | 194 | 0.0 | 0.0 | 0.12 | 0.91 | 0.91 | 98 | 1006.8 |
| 20260506165657 | 41 | 201 | 0.0 | 0.0 | 0.12 | 0.91 | 0.91 | 98 | 1006.8 |
| 20260506165153 | 41 | 203 | 0.0 | 0.0 | 0.12 | 0.90 | 0.90 | 98 | 1007.1 |
| 20260506164650 | 41 | 205 | 0.0 | 0.0 | 0.19 | 0.89 | 0.89 | 98 | 1007.0 |
| 20260506164148 | 41 | 211 | 0.0 | 0.0 | 0.19 | 0.88 | 0.88 | 98 | 1007.0 |
| 20260506163643 | 41 | 183 | 0.0 | 0.0 | 0.12 | 0.86 | 0.86 | 98 | 1007.0 |
| 20260506163139 | 41 | 197 | 0.0 | 0.0 | 0.12 | 0.85 | 0.85 | 98 | 1007.2 |
| 20260506162635 | 41 | 207 | 0.0 | 0.0 | 0.19 | 0.84 | 0.84 | 99 | 1007.1 |
| 20260506162133 | 41 | 180 | 0.0 | 0.0 | 0.17 | 0.83 | 0.83 | 99 | 1007.3 |
| 20260506161630 | 41 | 192 | 0.0 | 0.0 | 0.19 | 0.82 | 0.82 | 99 | 1007.0 |
| 20260506161127 | 41 | 213 | 0.0 | 0.0 | 0.12 | 0.80 | 0.80 | 99 | 1007.1 |
| 20260506160624 | 40 | 176 | 0.0 | 0.0 | 0.12 | 0.79 | 0.79 | 99 | 1006.9 |
| 20260506160121 | 40 | 185 | 0.0 | 0.0 | 0.12 | 0.78 | 0.78 | 99 | 1007.4 |
| 20260506155620 | 40 | 181 | 0.0 | 0.0 | 0.12 | 0.77 | 0.77 | 99 | 1007.1 |
| 20260506155116 | 40 | 189 | 0.0 | 0.0 | 0.12 | 0.72 | 0.72 | 99 | 1007.1 |
| 20260506153218 | 40 | 211 | 0.0 | 0.0 | 0.12 | 0.71 | 0.71 | 99 | 1007.2 |
| 20260506152715 | 40 | 192 | 0.0 | 0.0 | 0.12 | 0.70 | 0.70 | 99 | 1007.3 |
| 20260506152213 | 40 | 210 | 0.0 | 0.0 | 0.19 | 0.69 | 0.69 | 99 | 1007.4 |
| 20260506151712 | 40 | 216 | 0.0 | 0.0 | 0.17 | 0.68 | 0.68 | 99 | 1007.3 |
| 20260506151208 | 40 | 215 | 0.0 | 0.0 | 0.17 | 0.66 | 0.66 | 99 | 1007.5 |
| 20260506150704 | 39 | 208 | 0.0 | 0.0 | 0.19 | 0.65 | 0.65 | 99 | 1007.6 |
| 20260506150201 | 39 | 215 | 0.0 | 0.0 | 0.19 | 0.64 | 0.64 | 99 | 1007.4 |
| 20260506145658 | 40 | 210 | 0.0 | 0.0 | 0.19 | 0.62 | 0.62 | 98 | 1007.8 |
| 20260506145154 | 40 | 211 | 0.0 | 0.0 | 0.17 | 0.61 | 0.61 | 98 | 1007.4 |
| 20260506144652 | 40 | 193 | 0.0 | 0.0 | 0.17 | 0.59 | 0.59 | 98 | 1007.6 |
| 20260506144149 | 40 | 209 | 0.0 | 0.0 | 0.19 | 0.58 | 0.58 | 98 | 1007.5 |
| 20260506143646 | 40 | 170 | 0.0 | 0.0 | 0.12 | 0.56 | 0.56 | 98 | 1007.6 |
| 20260506143144 | 39 | 206 | 0.0 | 0.0 | 0.17 | 0.55 | 0.55 | 98 | 1007.4 |
| 20260506142643 | 39 | 218 | 0.0 | 0.0 | 0.19 | 0.54 | 0.54 | 98 | 1007.5 |
| 20260506142140 | 39 | 211 | 0.0 | 0.0 | 0.12 | 0.52 | 0.52 | 98 | 1007.3 |
| 20260506141638 | 39 | 207 | 0.0 | 0.0 | 0.19 | 0.51 | 0.51 | 98 | 1007.3 |
| 20260506141136 | 39 | 210 | 0.0 | 0.0 | 0.26 | 0.50 | 0.50 | 98 | 1007.4 |
| 20260506140633 | 39 | 214 | 0.0 | 0.0 | 0.17 | 0.48 | 0.48 | 98 | 1007.5 |
| 20260506140130 | 40 | 212 | 0.0 | 0.0 | 0.19 | 0.47 | 0.47 | 98 | 1007.4 |
| 20260506135627 | 39 | 205 | 0.0 | 0.0 | 0.17 | 0.46 | 0.46 | 98 | 1007.2 |
| 20260506135123 | 39 | 185 | 0.0 | 0.0 | 0.17 | 0.44 | 0.44 | 98 | 1007.0 |
| 20260506134620 | 39 | 213 | 0.0 | 0.0 | 0.12 | 0.43 | 0.43 | 98 | 1006.8 |
| 20260506134115 | 39 | 173 | 0.0 | 0.0 | 0.12 | 0.42 | 0.42 | 98 | 1007.0 |
| 20260506133613 | 39 | 183 | 0.0 | 0.0 | 0.12 | 0.41 | 0.41 | 98 | 1007.2 |
| 20260506133110 | 39 | 199 | 0.0 | 0.0 | 0.17 | 0.40 | 0.40 | 98 | 1007.1 |
| 20260506132608 | 39 | 192 | 0.0 | 0.0 | 0.19 | 0.39 | 0.39 | 98 | 1007.2 |
| 20260506132104 | 40 | 212 | 0.0 | 0.0 | 0.12 | 0.38 | 0.38 | 98 | 1007.3 |
| 20260506131602 | 40 | 207 | 0.0 | 0.0 | 0.12 | 0.36 | 0.36 | 98 | 1007.3 |
| 20260506131058 | 40 | 207 | 0.0 | 0.0 | 0.12 | 0.36 | 0.36 | 98 | 1006.9 |
| 20260506130555 | 40 | 209 | 0.0 | 0.0 | 0.07 | 0.34 | 0.34 | 98 | 1007.1 |
| 20260506130052 | 40 | 201 | 0.0 | 0.0 | 0.05 | 0.33 | 0.33 | 98 | 1007.1 |
| 20260506125550 | 40 | 200 | 0.0 | 0.0 | 0.05 | 0.33 | 0.33 | 98 | 1006.9 |
| 20260506125048 | 40 | 210 | 0.0 | 0.0 | 0.07 | 0.32 | 0.32 | 98 | 1007.2 |
| 20260506124545 | 39 | 187 | 0.0 | 0.0 | 0.07 | 0.32 | 0.32 | 97 | 1007.2 |
| 20260506124043 | 39 | 185 | 0.0 | 0.0 | 0.05 | 0.31 | 0.31 | 97 | 1007.3 |
| 20260506123540 | 39 | 186 | 0.0 | 0.0 | 0.05 | 0.31 | 0.31 | 97 | 1007.5 |
| 20260506123039 | 39 | 204 | 0.0 | 0.0 | 0.07 | 0.30 | 0.30 | 97 | 1007.3 |
| 20260506122535 | 40 | 205 | 0.0 | 0.0 | 0.12 | 0.30 | 0.30 | 98 | 1007.6 |
| 20260506122034 | 39 | 206 | 0.0 | 0.0 | 0.12 | 0.29 | 0.29 | 98 | 1007.6 |
| 20260506121531 | 39 | 221 | 0.0 | 0.0 | 0.12 | 0.29 | 0.29 | 97 | 1008.1 |
| 20260506121027 | 39 | 193 | 0.0 | 0.0 | 0.12 | 0.28 | 0.28 | 97 | 1008.2 |
| 20260506120525 | 39 | 208 | 0.0 | 0.0 | 0.12 | 0.27 | 0.27 | 97 | 1008.2 |
| 20260506120022 | 40 | 211 | 0.0 | 0.0 | 0.07 | 0.25 | 0.25 | 98 | 1008.3 |
| 20260506115520 | 39 | 218 | 0.0 | 0.0 | 0.12 | 0.25 | 0.25 | 98 | 1008.2 |
| 20260506115018 | 39 | 212 | 0.0 | 0.0 | 0.12 | 0.24 | 0.24 | 98 | 1008.2 |
| 20260506114515 | 39 | 199 | 0.0 | 0.0 | 0.12 | 0.23 | 0.23 | 98 | 1008.3 |
| 20260506114014 | 40 | 211 | 0.0 | 0.0 | 0.17 | 0.22 | 0.22 | 98 | 1008.2 |
| 20260506113511 | 40 | 213 | 0.0 | 0.0 | 0.19 | 0.21 | 0.21 | 97 | 1008.1 |
| 20260506113008 | 40 | 215 | 0.0 | 0.0 | 0.07 | 0.19 | 0.19 | 97 | 1008.2 |
| 20260506112505 | 40 | 218 | 0.0 | 0.0 | 0.05 | 0.18 | 0.18 | 97 | 1008.2 |
| 20260506112002 | 40 | 216 | 0.0 | 0.0 | 0.12 | 0.18 | 0.18 | 97 | 1008.0 |
| 20260506111500 | 40 | 209 | 0.0 | 0.0 | 0.12 | 0.17 | 0.17 | 97 | 1007.9 |
| 20260506110956 | 40 | 208 | 0.0 | 0.0 | 0.17 | 0.16 | 0.16 | 97 | 1008.3 |
| 20260506110455 | 40 | 214 | 0.0 | 0.0 | 0.19 | 0.15 | 0.15 | 97 | 1008.4 |
| 20260506105951 | 40 | 213 | 0.0 | 0.0 | 0.07 | 0.13 | 0.13 | 97 | 1008.2 |
| 20260506105447 | 40 | 209 | 0.0 | 0.0 | 0.14 | 0.13 | 0.13 | 97 | 1007.9 |
| 20260506104945 | 40 | 204 | 0.0 | 0.0 | 0.07 | 0.12 | 0.12 | 96 | 1007.7 |
| 20260506104443 | 40 | 213 | 0.0 | 0.0 | 0.00 | 0.11 | 0.11 | 96 | 1007.8 |
| 20260506103941 | 40 | 213 | 0.0 | 0.0 | 0.05 | 0.11 | 0.11 | 96 | 1007.8 |
| 20260506103438 | 40 | 218 | 0.0 | 0.0 | 0.05 | 0.11 | 0.11 | 96 | 1007.9 |
| 20260506102934 | 40 | 212 | 0.0 | 0.0 | 0.07 | 0.10 | 0.10 | 95 | 1007.7 |
| 20260506102433 | 41 | 206 | 0.0 | 0.0 | 0.07 | 0.10 | 0.10 | 95 | 1007.8 |
| 20260506101930 | 41 | 206 | 0.0 | 0.0 | 0.00 | 0.09 | 0.09 | 95 | 1007.8 |
| 20260506101426 | 41 | 212 | 0.0 | 0.0 | 0.05 | 0.09 | 0.09 | 94 | 1008.0 |
| 20260506100923 | 41 | 217 | 0.0 | 0.0 | 0.05 | 0.09 | 0.09 | 95 | 1008.0 |
| 20260506100421 | 41 | 217 | 0.0 | 0.0 | 0.00 | 0.08 | 0.08 | 96 | 1008.0 |
| 20260506095919 | 41 | 216 | 0.0 | 0.0 | 0.07 | 0.08 | 0.08 | 96 | 1008.1 |
| 20260506095417 | 41 | 218 | 0.0 | 0.0 | 0.07 | 0.08 | 0.08 | 97 | 1008.1 |
| 20260506094913 | 42 | 218 | 0.0 | 0.0 | 0.00 | 0.07 | 0.07 | 97 | 1008.0 |
| 20260506094412 | 42 | 211 | 0.0 | 0.0 | 0.00 | 0.07 | 0.07 | 97 | 1007.9 |
| 20260506093909 | 42 | 208 | 0.0 | 0.0 | 0.05 | 0.07 | 0.07 | 97 | 1008.0 |
| 20260506093407 | 42 | 194 | 0.0 | 0.0 | 0.05 | 0.07 | 0.07 | 97 | 1008.3 |
| 20260506092904 | 42 | 193 | 0.0 | 0.0 | 0.00 | 0.06 | 0.06 | 96 | 1007.6 |
| 20260506092402 | 42 | 218 | 0.0 | 0.0 | 0.00 | 0.06 | 0.06 | 96 | 1008.2 |
| 20260506091858 | 42 | 186 | 0.0 | 0.0 | 0.00 | 0.06 | 0.06 | 97 | 1008.1 |
| 20260506091357 | 43 | 216 | 0.0 | 0.0 | 0.00 | 0.06 | 0.06 | 97 | 1008.4 |
| 20260506090853 | 43 | 215 | 0.0 | 0.0 | 0.00 | 0.06 | 0.06 | 97 | 1008.1 |
| 20260506090351 | 43 | 215 | 0.0 | 0.0 | 0.00 | 0.06 | 0.06 | 97 | 1008.0 |
| 20260506085848 | 43 | 214 | 0.0 | 0.0 | 0.00 | 0.06 | 0.06 | 97 | 1007.9 |
| 20260506085344 | 42 | 214 | 0.0 | 0.0 | 0.00 | 0.06 | 0.06 | 97 | 1007.7 |
| 20260506084841 | 42 | 200 | 0.0 | 0.0 | 0.00 | 0.06 | 0.06 | 96 | 1008.0 |
| 20260506084338 | 43 | 219 | 0.0 | 0.0 | 0.00 | 0.06 | 0.06 | 97 | 1008.5 |
| 20260506083834 | 43 | 219 | 0.0 | 0.0 | 0.00 | 0.06 | 0.06 | 96 | 1008.4 |
| 20260506083332 | 43 | 212 | 0.0 | 0.0 | 0.07 | 0.06 | 0.06 | 96 | 1008.1 |
| 20260506082829 | 43 | 193 | 0.0 | 0.0 | 0.07 | 0.06 | 0.06 | 96 | 1008.1 |
| 20260506082325 | 43 | 207 | 0.0 | 0.0 | 0.05 | 0.05 | 0.05 | 96 | 1008.6 |
| 20260506081822 | 43 | 221 | 0.0 | 0.0 | 0.05 | 0.05 | 0.05 | 96 | 1008.9 |
| 20260506081320 | 43 | 221 | 0.0 | 0.0 | 0.00 | 0.04 | 0.04 | 96 | 1008.4 |
| 20260506080817 | 43 | 208 | 0.0 | 0.0 | 0.00 | 0.04 | 0.04 | 96 | 1007.9 |
| 20260506080313 | 43 | 208 | 0.0 | 0.0 | 0.00 | 0.04 | 0.04 | 96 | 1008.2 |
| 20260506073258 | 44 | 207 | 0.0 | 0.0 | 0.00 | 0.04 | 0.04 | 94 | 1008.2 |
| 20260506072754 | 44 | 212 | 0.0 | 0.0 | 0.00 | 0.04 | 0.04 | 94 | 1008.5 |
| 20260506072252 | 44 | 213 | 0.0 | 0.0 | 0.00 | 0.04 | 0.04 | 95 | 1008.3 |
| 20260506071749 | 44 | 206 | 0.0 | 0.0 | 0.00 | 0.04 | 0.04 | 96 | 1008.2 |
| 20260506071247 | 44 | 213 | 0.0 | 0.0 | 0.00 | 0.04 | 0.04 | 96 | 1008.1 |
| 20260506070744 | 45 | 212 | 0.0 | 0.0 | 0.00 | 0.04 | 0.04 | 96 | 1008.3 |
| 20260506070241 | 45 | 214 | 0.0 | 0.0 | 0.00 | 0.04 | 0.04 | 97 | 1008.1 |
| 20260506062218 | 45 | 235 | 0.0 | 0.0 | 0.00 | 0.04 | 0.04 | 97 | 1008.4 |
| 20260506061714 | 45 | 239 | 0.0 | 0.0 | 0.00 | 0.04 | 0.04 | 97 | 1008.3 |
| 20260506061211 | 45 | 185 | 0.0 | 0.0 | 0.00 | 0.04 | 0.04 | 97 | 1008.3 |
| 20260506060710 | 45 | 222 | 0.0 | 0.0 | 0.07 | 0.04 | 0.04 | 97 | 1008.2 |
| 20260506060206 | 45 | 215 | 0.0 | 0.0 | 0.07 | 0.04 | 0.04 | 97 | 1008.2 |
| 20260506051138 | 46 | 218 | 0.0 | 0.0 | 0.00 | 0.03 | 0.03 | 94 | 1008.3 |
| 20260506050637 | 46 | 221 | 0.9 | 1.7 | 0.00 | 0.03 | 0.03 | 94 | 1008.5 |
| 20260506050134 | 47 | 220 | 0.0 | 0.0 | 0.00 | 0.03 | 0.03 | 96 | 1008.9 |
| 20260506045127 | 47 | 251 | 0.0 | 0.0 | 0.05 | 0.03 | 0.03 | 96 | 1008.5 |
| 20260506044625 | 47 | 205 | 0.0 | 0.0 | 0.00 | 0.02 | 0.02 | 96 | 1008.5 |
| 20260506044121 | 47 | 217 | 0.0 | 0.0 | 0.00 | 0.02 | 0.02 | 96 | 1008.9 |
| 20260506043619 | 47 | 217 | 0.0 | 0.0 | 0.07 | 0.02 | 0.02 | 96 | 1008.8 |
| 20260506043117 | 47 | 212 | 0.0 | 0.0 | 0.07 | 0.02 | 0.02 | 96 | 1008.8 |
| 20260506042615 | 48 | 216 | 0.0 | 0.0 | 0.00 | 0.01 | 0.01 | 96 | 1008.4 |
| 20260506042113 | 48 | 195 | 0.0 | 0.0 | 0.00 | 0.01 | 0.01 | 96 | 1008.5 |
| 20260506041612 | 48 | 215 | 0.0 | 0.0 | 0.05 | 0.01 | 0.01 | 96 | 1008.2 |
| 20260506041108 | 48 | 178 | 0.0 | 0.0 | 0.05 | 0.01 | 0.01 | 96 | 1008.6 |
| 20260506040606 | 48 | 216 | 0.0 | 0.9 | 0.00 | 0.00 | 0.00 | 96 | 1008.5 |
| 20260506035559 | 48 | 217 | 0.0 | 0.0 | 0.00 | 0.26 | 0.26 | 97 | 1008.3 |
| 20260506035055 | 48 | 216 | 0.0 | 0.0 | 0.00 | 0.26 | 0.26 | 97 | 1008.1 |
| 20260506034553 | 48 | 229 | 0.0 | 0.0 | 0.00 | 0.26 | 0.26 | 96 | 1007.9 |
| 20260506034050 | 48 | 225 | 0.0 | 0.0 | 0.00 | 0.26 | 0.26 | 96 | 1007.7 |
| 20260506033547 | 48 | 220 | 0.0 | 0.0 | 0.00 | 0.26 | 0.26 | 96 | 1007.8 |
| 20260506033044 | 48 | 218 | 0.0 | 0.0 | 0.07 | 0.26 | 0.26 | 96 | 1007.9 |
| 20260506032541 | 48 | 188 | 0.0 | 0.0 | 0.07 | 0.26 | 0.26 | 96 | 1007.7 |
| 20260506032038 | 48 | 203 | 0.0 | 0.0 | 0.00 | 0.25 | 0.25 | 96 | 1007.7 |
| 20260506031536 | 49 | 213 | 0.0 | 0.0 | 0.00 | 0.25 | 0.25 | 95 | 1008.0 |
| 20260506031032 | 49 | 188 | 0.0 | 0.0 | 0.07 | 0.25 | 0.25 | 96 | 1007.9 |
| 20260506030531 | 49 | 209 | 0.0 | 0.0 | 0.07 | 0.25 | 0.25 | 95 | 1008.0 |
| 20260506030028 | 49 | 215 | 0.0 | 0.0 | 0.00 | 0.24 | 0.24 | 95 | 1007.9 |
| 20260506025525 | 49 | 218 | 0.0 | 0.0 | 0.00 | 0.24 | 0.24 | 95 | 1007.9 |
| 20260506025020 | 49 | 205 | 0.0 | 0.0 | 0.05 | 0.24 | 0.24 | 95 | 1007.9 |
| 20260506024517 | 49 | 215 | 0.0 | 0.0 | 0.05 | 0.24 | 0.24 | 95 | 1007.9 |
| 20260506024014 | 49 | 216 | 0.0 | 0.0 | 0.00 | 0.23 | 0.23 | 94 | 1008.1 |
| 20260506023510 | 49 | 207 | 0.0 | 0.0 | 0.00 | 0.23 | 0.23 | 94 | 1008.2 |
| 20260506023008 | 49 | 213 | 0.0 | 0.0 | 0.00 | 0.23 | 0.23 | 92 | 1008.3 |
| 20260506022505 | 49 | 210 | 0.0 | 0.0 | 0.00 | 0.23 | 0.23 | 92 | 1008.2 |
| 20260506022002 | 50 | 207 | 0.0 | 0.0 | 0.00 | 0.23 | 0.23 | 92 | 1007.8 |
| 20260506021500 | 49 | 219 | 0.0 | 0.0 | 0.00 | 0.23 | 0.23 | 91 | 1008.1 |